This is the latest recevied weather packets stored in our database for station/object KB1FFS. If no packets are shown the sender has not sent any weather packets the latest 10 day(s).
| Time | Temp. | Humidity | Pressure | Rain* | Wind** | Luminosity | Snow |
|---|---|---|---|---|---|---|---|
| 1777677649 | 18.89° C | 57% | 1016.6 hPa | 0 mm | - | 97 W/m² | - |
| 1777677347 | 18.89° C | 56% | 1016.9 hPa | 0 mm | - | 103 W/m² | - |
| 1777677045 | 18.89° C | 54% | 1016.7 hPa | 0 mm | - | 96 W/m² | - |
| 1777676744 | 18.89° C | 56% | 1016.7 hPa | 0 mm | - | 101 W/m² | - |
| 1777676441 | 18.89° C | 56% | 1016.6 hPa | 0 mm | - | 120 W/m² | - |
| 1777676138 | 18.89° C | 57% | 1016.5 hPa | 0 mm | - | 134 W/m² | - |
| 1777675834 | 18.89° C | 57% | 1016.7 hPa | 0 mm | - | 130 W/m² | - |
| 1777675532 | 18.89° C | 57% | 1016.7 hPa | 0 mm | - | 157 W/m² | - |
| 1777675229 | 18.89° C | 55% | 1016.6 hPa | 0 mm | - | 155 W/m² | - |
| 1777674925 | 18.89° C | 57% | 1016.9 hPa | 0 mm | - | 128 W/m² | - |
| 1777674622 | 18.89° C | 57% | 1016.7 hPa | 0 mm | - | 119 W/m² | - |
| 1777674321 | 18.89° C | 57% | 1016.7 hPa | 0 mm | - | 116 W/m² | - |
| 1777674016 | 18.89° C | 56% | 1016.5 hPa | 0 mm | - | 128 W/m² | - |
| 1777673711 | 18.89° C | 58% | 1016.7 hPa | 0 mm | - | 136 W/m² | - |
| 1777673409 | 18.89° C | 57% | 1016.5 hPa | 0 mm | - | 130 W/m² | - |
| 1777673107 | 18.89° C | 55% | 1016.4 hPa | 0 mm | - | 127 W/m² | - |
| 1777672803 | 18.89° C | 55% | 1016.3 hPa | 0 mm | - | 129 W/m² | - |
| 1777672499 | 18.89° C | 56% | 1016.5 hPa | 0 mm | - | 144 W/m² | - |
| 1777672195 | 18.89° C | 56% | 1016.6 hPa | 0 mm | - | 147 W/m² | - |
| 1777671890 | 18.89° C | 54% | 1016.2 hPa | 0 mm | - | 132 W/m² | - |
| 1777671586 | 18.89° C | 54% | 1016.6 hPa | 0 mm | - | 124 W/m² | - |
| 1777671284 | 18.89° C | 55% | 1016.5 hPa | 0 mm | - | 121 W/m² | - |
| 1777670978 | 18.89° C | 55% | 1016.7 hPa | 0 mm | - | 151 W/m² | - |
| 1777670676 | 18.89° C | 56% | 1016.9 hPa | 0 mm | - | 166 W/m² | - |
| 1777670372 | 19.44° C | 55% | 1017.1 hPa | 0 mm | - | 173 W/m² | - |
* Rain latest hour (hover to see other rain measurements)
** Current wind speed in m/s (hover to see current wind gust speed)